Change the Weather History Date:

Monday, January 20, 2014

  Actual Average Record
Temperature  
Mean Temperature 45 °F -  
Max Temperature 57 °F 41 °F 64 °F (2006)
Min Temperature 30 °F 24 °F 12 °F (2008)
Degree Days  
Heating Degree Days 20    
Moisture  
Dew Point 23 °F    
Average Humidity 46    
Maximum Humidity 76    
Minimum Humidity 26    
Precipitation  
Precipitation 0.00 in - - ()
Sea Level Pressure  
Sea Level Pressure 29.77 in    
Wind  
Wind Speed 5 mph (West)    
Max Wind Speed 14 mph    
Max Gust Speed 26 mph    
Visibility 10 miles    
Events      
Averages and records for this station are not official NWS values.
T = Trace of Precipitation, MM = Missing Value Source: NWS Daily Summary

Daily Weather History Graph

Daily Weather History Graph

Search for Another Location

Airport or City:

Trip Planner

Search our weather history database for the weather conditions in past years. The results will help you decide how hot, cold, wet, or windy it might be!

Date:

Astronomy

Jan. 20, 2014 Rise Set
Actual Time 7:23 AM EST 5:16 PM EST
Civil Twilight 6:54 AM EST 5:45 PM EST
Nautical Twilight 6:21 AM EST 6:18 PM EST
Astronomical Twilight 5:50 AM EST 6:49 PM EST
Moon 9:46 PM EST (1/20) 9:24 AM EST (1/20)
Length of Visible Light 10h 51m
Length of Day
9h 53m
Waning Gibbous, 83% of the Moon is Illuminated
Jan 20
Waning Gibbous
Jan 24
Last Quarter
Jan 30
New
Feb 6
First Quarter
Feb 14
Full

Hourly Weather History & Observations

Time (EST) Temp. Windchill Dew Point Humidity Pressure Visibility Wind Dir Wind Speed Gust Speed Precip Events Conditions
12:58 AM 39.2 °F 37.0 °F 23.5 °F 53% 29.77 in 10.0 mi Variable 3.5 mph - N/A   Partly Cloudy
1:58 AM 39.4 °F 34.5 °F 25.2 °F 57% 29.76 in 10.0 mi SSW 6.9 mph - N/A   Clear
2:58 AM 39.0 °F - 25.5 °F 58% 29.75 in 10.0 mi South 2.3 mph - N/A   Scattered Clouds
3:58 AM 39.6 °F 36.3 °F 24.4 °F 55% 29.73 in 10.0 mi Variable 4.6 mph - N/A   Mostly Cloudy
4:58 AM 38.8 °F - 23.5 °F 54% 29.74 in 10.0 mi Variable 2.3 mph - N/A   Clear
5:58 AM 37.8 °F - 23.2 °F 56% 29.72 in 10.0 mi SSE 2.3 mph - N/A   Clear
6:58 AM 38.1 °F - 23.0 °F 55% 29.71 in 10.0 mi Variable 2.3 mph - N/A   Scattered Clouds
7:58 AM 39.9 °F 37.8 °F 21.6 °F 48% 29.71 in 10.0 mi Variable 3.5 mph - N/A   Overcast
8:58 AM 38.8 °F - 21.4 °F 50% 29.72 in 10.0 mi SW 1.2 mph - N/A   Clear
9:58 AM 44.8 °F - 21.6 °F 40% 29.73 in 10.0 mi Variable 2.3 mph - N/A   Clear
10:58 AM 50.4 °F - 21.4 °F 32% 29.72 in 10.0 mi SSW 6.9 mph - N/A   Clear
11:58 AM 55.6 °F - 21.7 °F 27% 29.70 in 10.0 mi Variable 5.8 mph - N/A   Clear
12:58 PM 56.5 °F - 21.9 °F 26% 29.67 in 10.0 mi WSW 11.5 mph 18.4 mph N/A   Clear
1:58 PM 57.0 °F - 22.6 °F 26% 29.67 in 10.0 mi Variable 5.8 mph 16.1 mph N/A   Clear
2:58 PM 57.2 °F - 22.8 °F 27% 29.69 in 10.0 mi West 9.2 mph - N/A   Clear
3:58 PM 57.2 °F - 23.9 °F 28% 29.71 in 10.0 mi WNW 10.4 mph - N/A   Clear
4:58 PM 53.8 °F - 24.1 °F 32% 29.75 in 10.0 mi NW 8.1 mph - N/A   Clear
5:58 PM 50.7 °F - 25.3 °F 37% 29.81 in 10.0 mi NNW 12.7 mph 21.9 mph N/A   Clear
6:58 PM 46.9 °F - 24.6 °F 42% 29.85 in 10.0 mi NW 13.8 mph 26.5 mph N/A   Clear
7:58 PM 44.2 °F 40.3 °F 24.1 °F 45% 29.87 in 10.0 mi NW 6.9 mph - N/A   Clear
8:58 PM 40.5 °F - 24.1 °F 52% 29.89 in 10.0 mi Variable 2.3 mph - N/A   Clear
9:58 PM 36.0 °F - 25.0 °F 64% 29.89 in 10.0 mi NNW 1.2 mph - N/A   Clear
10:58 PM 33.6 °F - 25.2 °F 71% 29.90 in 10.0 mi SSE 2.3 mph - N/A   Clear
11:58 PM 30.7 °F - 24.1 °F 76% 29.90 in 10.0 mi Calm Calm - N/A   Clear